Home   Weather   Pointe-à-Pitre   Past weeks

Flag for Guadeloupe Past Weather in Pointe-à-Pitre, Guadeloupe — Yesterday and Last 2 Weeks

Now
68 °F

Sunny.


Feels Like: 68 °F
Forecast: 70 / 83 °F
Wind: No wind

Location: Le Raizet - Guadeloupe

Current Time: Feb 19, 2017 at 8:19:40 am

Latest Report: Feb 19, 2017 at 7:30 am


Visibility: 10 mi

Pressure: 30.04 "Hg

Humidity: 94%

Dew Point: 66 °F

Location of Pointe-à-PitreLocation

Past Weather in Pointe-à-Pitre — Graph

°F

Pointe-à-Pitre Temperature Yesterday

Maximum temperature yesterday: 84 °F (at 11:00 am)
Minimum temperature yesterday: 68 °F (at 11:30 pm)
Average temperature yesterday: 76 °F

High & Low Weather Summary for the Past Weeks

 TemperatureHumidityPressure
High86 °F (Feb 4, 11:30 am)100% (Feb 13, 6:30 am)30.12 "Hg (Feb 13, 6:30 am)
Low64 °F (Feb 13, 6:30 am)40% (Feb 9, 3:00 pm)29.86 "Hg (Feb 13, 3:30 pm)
Average76 °F74%30.02 "Hg
* Reported Feb 4 7:00 am — Feb 19 7:00 am, Pointe-à-Pitre, Weather by CustomWeather, © 2017

Note: Actual official high and low records may vary slightly from our data, if they occured in-between our weather recording intervals... More about our weather records

Advertising

Pointe-à-Pitre Weather History for the Previous 24 Hours

Scroll right to see more
 ConditionsComfort  
Time TempWeatherWind HumidityBarometerVisibility
7:00 am
Sun, Feb 19
66 °FSunny.No wind94%30.04 "Hg10 mi
6:30 am64 °FSunny.No wind100%30.04 "Hg10 mi
6:00 am64 °FClear.1 mph100%30.01 "Hg10 mi
5:30 am64 °FClear.1 mph94%30.01 "Hg10 mi
5:00 am64 °FClear.No wind100%30.01 "Hg10 mi
4:30 am64 °FClear.No wind100%30.01 "Hg10 mi
4:00 am64 °FPassing clouds.No wind100%30.01 "HgN/A
3:30 am66 °FClear.No wind94%30.01 "Hg10 mi
3:00 am66 °FClear.2 mph100%30.01 "Hg10 mi
2:30 am66 °FClear.No wind94%30.01 "Hg10 mi
2:00 am66 °FClear.No wind94%30.01 "Hg10 mi
1:30 am66 °FClear.No wind94%30.01 "Hg10 mi
1:00 am68 °FClear.No wind94%30.04 "Hg10 mi
12:30 am68 °FClear.No wind94%30.04 "Hg10 mi
12:00 am68 °FClear.No wind94%30.04 "Hg10 mi
11:30 pm
Sat, Feb 18
68 °FClear.No wind94%30.04 "Hg10 mi
11:00 pm70 °FClear.1 mph94%30.04 "Hg10 mi
10:30 pm70 °FClear.2 mph88%30.04 "Hg10 mi
10:00 pm70 °FClear.No wind88%30.04 "Hg10 mi
9:30 pm72 °FClear.2 mph83%30.04 "Hg10 mi
9:00 pm72 °FClear.1 mph88%30.04 "Hg10 mi
8:30 pm73 °FClear.3 mph83%30.04 "Hg10 mi
8:00 pm75 °FClear.No wind78%30.04 "Hg10 mi
7:30 pm75 °FClear.3 mph78%30.01 "Hg10 mi
7:00 pm77 °FClear.6 mph74%30.01 "Hg10 mi
6:30 pm77 °FClear.7 mph74%30.01 "Hg10 mi
6:00 pm79 °FSunny.10 mph65%30.01 "Hg10 mi
5:30 pm81 °FPassing clouds.12 mph62%29.98 "HgN/A
5:00 pm81 °FPassing clouds.8 mph62%29.98 "HgN/A
4:30 pm82 °FPassing clouds.10 mph55%29.98 "HgN/A
4:00 pm82 °FPassing clouds.12 mph58%29.98 "HgN/A
3:30 pm84 °FPassing clouds.13 mph55%29.98 "HgN/A
3:00 pm84 °FScattered clouds.10 mph55%29.98 "HgN/A
2:30 pm84 °FBroken clouds.12 mph55%29.98 "HgN/A
2:00 pm84 °FPartly sunny.9 mph58%29.98 "HgN/A
1:30 pm82 °FCloudy.10 mph66%30.01 "HgN/A
1:00 pm82 °FBroken clouds.6 mph62%30.01 "HgN/A
12:30 pm84 °FPartly sunny.6 mph55%30.01 "HgN/A
12:00 pm82 °FPartly sunny.9 mph51%30.04 "HgN/A
11:30 am81 °FPartly sunny.10 mph62%30.04 "HgN/A
11:00 am84 °FMostly cloudy.12 mph55%30.04 "HgN/A
10:30 am82 °FMostly cloudy.10 mph62%30.07 "HgN/A
10:00 am81 °FBroken clouds.10 mph66%30.07 "HgN/A
9:30 am81 °FPartly sunny.5 mph74%30.07 "HgN/A
9:00 am77 °FSunny.No wind79%30.04 "Hg10 mi
8:30 am73 °FMostly cloudy.3 mph89%30.04 "HgN/A
8:00 am72 °FOvercast.3 mph88%30.04 "HgN/A
Weather by CustomWeather, © 2017

See weather overviewHow to use our weather pages